Tracking 28336 objects as of 4-Dec-2023
HD Live streaming from Space Station
objects crossing your sky now

STARLINK-3117

Track STARLINK-3117 now!
10-day predictions
STARLINK-3117 is classified as:


NORAD ID: 49435
Int'l Code: 2021-104AD
Perigee: 545.6 km
Apogee: 548.3 km
Inclination: 53.2 °
Period: 95.4 minutes
Semi major axis: 6917 km
RCS: Unknown
Launch date: November 13, 2021
Source: United States (US)
Launch site: AIR FORCE EASTERN TEST RANGE (AFETR)
Your satellite tracking list
Your tracking list is empty




NASA's NSSDC Master Catalog

Two Line Element Set (TLE):
1 49435U 21104AD  23337.43144722  .00000430  00000-0  45177-4 0  9993
2 49435  53.2172 322.8254 0001986  71.7161 288.4047 15.08812693115104
Source of the keplerian elements: AFSPC